GW7168 Weather Reports


Display with metric or nautical units.
time (UTC)temp
F
wind
direction
speed
MPH
gust
MPH
rain 1hr
in
rain 24hr
in
rain mn
in
humidity
%
barometer
mb
20260506073508 51 225 0.0 3.0 0.00 0.00 0.00 90 1016.6
20260506073029 51 225 0.0 3.0 0.00 0.00 0.00 90 1016.5
20260506072504 51 282 0.0 2.0 0.00 0.00 0.00 90 1016.5
20260506072008 51 282 0.0 2.0 0.00 0.00 0.00 89 1016.4
20260506071518 51 282 0.0 1.0 0.00 0.00 0.00 89 1016.4
20260506071010 51 265 0.0 2.0 0.00 0.00 0.00 89 1016.2
20260506070506 51 265 0.0 2.0 0.00 0.00 0.00 89 1016.2
20260506062508 52 205 0.0 4.0 0.00 0.00 0.00 87 1016.0
20260506062008 52 325 0.0 4.0 0.00 0.00 0.00 87 1016.0
20260506061508 52 209 0.0 2.0 0.00 0.00 0.00 87 1016.0
20260506061008 52 5 0.0 2.0 0.00 0.00 0.00 87 1015.9
20260506060508 52 320 0.0 2.0 0.00 0.00 0.00 87 1015.9
20260506051005 54 186 0.0 3.0 0.00 0.00 0.00 83 1015.8
20260506050506 54 188 0.0 3.0 0.00 0.00 0.00 83 1015.8
20260506045008 54 344 1.0 4.0 0.00 0.00 0.00 83 1015.7
20260506044549 54 318 0.0 4.0 0.00 0.00 0.00 82 1015.7
20260506044004 55 261 0.0 2.0 0.00 0.00 0.00 82 1015.7
20260506043509 55 261 0.0 2.0 0.00 0.00 0.00 81 1015.6
20260506043024 55 169 1.0 5.0 0.00 0.00 0.00 81 1015.5
20260506042504 55 186 0.0 4.0 0.00 0.00 0.00 81 1015.4
20260506042016 55 337 0.0 3.0 0.00 0.00 0.00 80 1015.4
20260506041524 56 197 1.0 3.0 0.00 0.00 0.00 80 1015.4
20260506041017 56 206 1.0 3.0 0.00 0.00 0.00 79 1015.4
20260506040508 56 218 0.0 2.0 0.00 0.00 0.00 79 1015.3
20260506040025 56 167 0.0 2.0 0.00 0.00 0.00 78 1015.2
20260506035506 57 332 0.0 4.0 0.00 0.00 0.00 78 1015.1
20260506035005 57 333 0.0 5.0 0.00 0.00 0.00 77 1015.1
20260506034543 57 312 2.0 5.0 0.00 0.00 0.00 76 1015.0
20260506034012 58 115 1.0 3.0 0.00 0.00 0.00 76 1014.9
20260506033511 58 68 0.0 4.0 0.00 0.00 0.00 77 1014.8
20260506033017 58 200 0.0 4.0 0.00 0.00 0.00 75 1014.7
20260506032511 59 124 1.0 2.0 0.00 0.00 0.00 74 1014.7
20260506032012 59 27 0.0 2.0 0.00 0.00 0.00 74 1014.6
20260506031527 60 130 0.0 3.0 0.00 0.00 0.00 73 1014.5
20260506031008 61 147 0.0 3.0 0.00 0.00 0.00 71 1014.5
20260506030509 62 246 1.0 3.0 0.00 0.00 0.00 70 1014.4
20260506030026 62 330 0.0 3.0 0.00 0.00 0.00 69 1014.3
20260506025506 63 247 1.0 3.0 0.00 0.00 0.00 69 1014.3
20260506025010 63 222 0.0 4.0 0.00 0.00 0.00 68 1014.1
20260506024521 63 263 1.0 4.0 0.00 0.00 0.00 67 1014.0
20260506024010 64 17 0.0 2.0 0.00 0.00 0.00 67 1013.9
20260506023509 64 165 1.0 2.0 0.00 0.00 0.00 66 1013.9
20260506023023 65 103 1.0 2.0 0.00 0.00 0.00 64 1013.9
20260506022507 65 28 0.0 2.0 0.00 0.00 0.00 65 1013.8
20260506022007 65 298 0.0 4.0 0.00 0.00 0.00 65 1013.9
20260506021522 65 155 0.0 4.0 0.00 0.00 0.00 65 1013.9
20260506021008 66 114 0.0 4.0 0.00 0.00 0.00 63 1013.8
20260506020508 66 323 1.0 3.0 0.00 0.00 0.00 63 1013.7
20260506020016 67 107 1.0 3.0 0.00 0.00 0.00 62 1013.7
20260506015508 68 94 0.0 2.0 0.00 0.00 0.00 60 1013.8
20260506015012 68 5 1.0 2.0 0.00 0.00 0.00 60 1013.7
20260506014528 69 237 1.0 3.0 0.00 0.00 0.00 60 1013.7
20260506014008 69 287 1.0 4.0 0.00 0.00 0.00 60 1013.6
20260506013505 69 336 1.0 4.0 0.00 0.00 0.00 58 1013.6
20260506013013 69 5 1.0 4.0 0.00 0.00 0.00 58 1013.6
20260506012502 70 69 0.0 4.0 0.00 0.00 0.00 58 1013.7
20260506012003 70 200 1.0 4.0 0.00 0.00 0.00 57 1013.8
20260506011510 70 43 1.0 5.0 0.00 0.00 0.00 57 1013.7
20260506011003 70 176 0.0 5.0 0.00 0.00 0.00 58 1013.7
20260506010502 71 96 0.0 3.0 0.00 0.00 0.00 57 1013.8
20260506010006 70 338 0.0 3.0 0.00 0.00 0.00 56 1013.7
20260506005504 71 101 1.0 6.0 0.00 0.00 0.00 56 1013.8
20260506005001 71 346 0.0 6.0 0.00 0.00 0.00 59 1013.8
20260506004505 71 328 2.0 4.0 0.00 0.00 0.00 56 1013.8
20260506004005 71 24 1.0 4.0 0.00 0.00 0.00 55 1013.9
20260506003509 72 360 0.0 4.0 0.00 0.00 0.00 55 1013.9
20260506003004 72 105 0.0 2.0 0.00 0.00 0.00 56 1013.9
20260506002508 72 275 0.0 2.0 0.00 0.00 0.00 56 1013.9
20260506002006 72 17 1.0 2.0 0.00 0.00 0.00 56 1013.9
20260506001501 73 11 1.0 2.0 0.00 0.00 0.00 55 1013.9
20260506001004 73 121 1.0 4.0 0.00 0.00 0.00 55 1013.9
20260506000508 73 79 1.0 3.0 0.00 0.00 0.00 55 1013.9
20260506000016 73 323 1.0 3.0 0.00 0.00 0.00 54 1013.9
20260505235504 72 83 1.0 3.0 0.00 0.00 0.00 56 1013.9
20260505235005 72 112 1.0 3.0 0.00 0.00 0.00 54 1013.9
20260505234522 72 105 1.0 3.0 0.00 0.00 0.00 55 1014.0
20260505234001 73 352 1.0 6.0 0.00 0.00 0.00 54 1014.0
20260505233500 73 159 2.0 6.0 0.00 0.00 0.00 54 1014.0
20260505233011 73 65 1.0 5.0 0.00 0.00 0.00 56 1013.9
20260505232508 73 263 1.0 4.0 0.00 0.00 0.00 53 1013.9
20260505232001 73 56 1.0 4.0 0.00 0.00 0.00 54 1013.9
20260505231510 73 303 0.0 4.0 0.00 0.00 0.00 55 1013.9
20260505231004 72 240 1.0 5.0 0.00 0.00 0.00 57 1013.9
20260505230507 73 57 2.0 5.0 0.00 0.00 0.00 54 1013.9
20260505230007 73 188 1.0 5.0 0.00 0.00 0.00 55 1013.9
20260505225504 73 277 2.0 5.0 0.00 0.00 0.00 53 1013.8
20260505225009 73 200 1.0 3.0 0.00 0.00 0.00 54 1013.9
20260505224504 73 240 1.0 5.0 0.00 0.00 0.00 55 1014.0
20260505224003 73 328 1.0 5.0 0.00 0.00 0.00 55 1014.1
20260505223507 73 194 1.0 4.0 0.00 0.00 0.00 56 1014.1
20260505223019 73 352 1.0 4.0 0.00 0.00 0.00 56 1014.2
20260505222503 73 295 1.0 4.0 0.00 0.00 0.00 57 1014.2
20260505222006 73 339 1.0 6.0 0.00 0.00 0.00 58 1014.2
20260505221519 73 42 2.0 6.0 0.00 0.00 0.00 55 1014.2
20260505221002 73 208 2.0 6.0 0.00 0.00 0.00 54 1014.2
20260505220504 73 133 0.0 5.0 0.00 0.00 0.00 56 1014.3
20260505220023 73 346 1.0 5.0 0.00 0.00 0.00 56 1014.3
20260505215508 73 264 1.0 5.0 0.00 0.00 0.00 55 1014.4
20260505215004 73 232 2.0 4.0 0.00 0.00 0.00 56 1014.4
20260505214512 72 199 1.0 7.0 0.00 0.00 0.00 57 1014.4
20260505214007 72 171 2.0 7.0 0.00 0.00 0.00 57 1014.4
20260505213511 72 95 2.0 6.0 0.00 0.00 0.00 57 1014.6
20260505213007 72 273 1.0 5.0 0.00 0.00 0.00 57 1014.6
20260505212510 72 21 1.0 5.0 0.00 0.00 0.00 57 1014.6
20260505212015 72 99 2.0 4.0 0.00 0.00 0.00 57 1014.5
20260505211506 71 138 1.0 4.0 0.00 0.00 0.00 59 1014.5
20260505211006 70 313 1.0 9.0 0.00 0.00 0.00 60 1014.6
20260505210505 70 221 4.0 9.0 0.00 0.00 0.00 58 1014.6
20260505210023 71 157 2.0 7.0 0.00 0.00 0.00 58 1014.6
20260505205508 71 181 2.0 7.0 0.00 0.00 0.00 57 1014.6
20260505205007 71 180 3.0 7.0 0.00 0.00 0.00 58 1014.6
20260505204522 71 211 2.0 4.0 0.00 0.00 0.00 58 1014.6
20260505204003 70 307 1.0 4.0 0.00 0.00 0.00 60 1014.7
20260505203504 70 292 2.0 5.0 0.00 0.00 0.00 60 1014.7
20260505203015 70 190 2.0 5.0 0.00 0.00 0.00 60 1014.8
20260505202510 69 194 1.0 4.0 0.00 0.00 0.00 62 1014.8
20260505202007 68 193 1.0 6.0 0.00 0.00 0.00 63 1014.9
20260505201513 68 320 2.0 6.0 0.00 0.00 0.00 64 1014.9
20260505201008 67 309 3.0 6.0 0.00 0.00 0.00 66 1014.9
20260505200508 67 122 3.0 5.0 0.00 0.00 0.00 65 1014.9
20260505200010 66 176 1.0 4.0 0.00 0.00 0.00 67 1015.0
20260505195504 66 272 2.0 4.0 0.00 0.00 0.00 67 1015.0
20260505195009 66 273 1.0 4.0 0.00 0.00 0.00 68 1015.0
20260505194515 65 323 1.0 4.0 0.00 0.00 0.00 69 1015.0
20260505194007 65 189 1.0 4.0 0.00 0.00 0.00 70 1015.1
20260505193507 64 196 2.0 4.0 0.00 0.00 0.00 71 1015.1
20260505193037 64 360 2.0 4.0 0.00 0.00 0.00 72 1015.2
20260505192507 63 280 0.0 4.0 0.00 0.00 0.00 72 1015.2
20260505192007 63 193 1.0 4.0 0.00 0.00 0.00 73 1015.2
20260505191532 63 352 1.0 4.0 0.00 0.00 0.00 73 1015.2
20260505191013 63 246 1.0 4.0 0.00 0.00 0.00 74 1015.2
20260505190505 62 252 0.0 4.0 0.00 0.00 0.00 75 1015.3
20260505190018 62 275 1.0 4.0 0.00 0.00 0.00 76 1015.3
20260505185509 61 352 2.0 4.0 0.00 0.00 0.00 77 1015.3
20260505185004 61 281 1.0 4.0 0.00 0.00 0.00 77 1015.3
20260505184516 60 179 2.0 7.0 0.00 0.00 0.00 77 1015.4
20260505184012 60 281 3.0 7.0 0.00 0.00 0.00 78 1015.4
20260505183511 60 279 1.0 4.0 0.00 0.00 0.00 78 1015.5
20260505183014 59 275 0.0 5.0 0.00 0.00 0.00 79 1015.4
20260505182510 59 5 2.0 5.0 0.00 0.00 0.00 79 1015.4
20260505182011 59 345 3.0 4.0 0.00 0.00 0.00 79 1015.4
20260505181509 59 292 0.0 3.0 0.00 0.00 0.00 80 1015.4
20260505181008 58 264 1.0 4.0 0.00 0.00 0.00 81 1015.4
20260505180508 58 140 0.0 4.0 0.00 0.00 0.00 81 1015.4
20260505180037 58 306 3.0 4.0 0.00 0.00 0.00 81 1015.4
20260505175504 57 5 1.0 5.0 0.00 0.00 0.00 82 1015.4
20260505175005 57 304 2.0 5.0 0.00 0.00 0.00 82 1015.4
20260505174532 57 9 1.0 4.0 0.00 0.00 0.00 82 1015.4
20260505174012 57 186 1.0 5.0 0.00 0.00 0.00 83 1015.4
20260505173507 56 269 2.0 5.0 0.00 0.00 0.00 84 1015.5
20260505173021 56 280 0.0 4.0 0.00 0.00 0.00 84 1015.5
20260505172511 56 310 1.0 4.0 0.00 0.00 0.00 84 1015.5
20260505172010 56 335 2.0 4.0 0.00 0.00 0.00 85 1015.5
20260505171520 56 334 2.0 4.0 0.00 0.00 0.00 85 1015.5
20260505171010 55 342 1.0 4.0 0.00 0.00 0.00 86 1015.5
20260505170509 55 348 2.0 4.0 0.00 0.00 0.00 86 1015.5
20260505170024 55 276 1.0 4.0 0.00 0.00 0.00 86 1015.4
20260505165507 55 311 2.0 3.0 0.00 0.00 0.00 87 1015.5
20260505165009 54 344 1.0 3.0 0.00 0.00 0.00 86 1015.6
20260505164527 54 273 1.0 3.0 0.00 0.00 0.00 87 1015.7
20260505164010 54 331 2.0 3.0 0.00 0.00 0.00 87 1015.7
20260505163503 54 310 0.0 2.0 0.00 0.00 0.00 88 1015.7
20260505163010 54 290 0.0 5.0 0.00 0.00 0.00 88 1015.8
20260505162507 54 338 1.0 5.0 0.00 0.00 0.00 87 1015.7
20260505162004 54 205 0.0 2.0 0.00 0.00 0.00 88 1015.7
20260505161511 54 218 0.0 2.0 0.00 0.00 0.00 87 1015.6
20260505161005 54 328 0.0 2.0 0.00 0.00 0.00 88 1015.7
20260505160508 54 344 0.0 2.0 0.00 0.00 0.00 89 1015.6
20260505153029 53 224 0.0 2.0 0.00 0.00 0.00 89 1015.4
20260505152504 53 296 0.0 2.0 0.00 0.00 0.00 89 1015.3
20260505152006 53 238 0.0 2.0 0.00 0.00 0.00 89 1015.3
20260505151517 53 238 0.0 2.0 0.00 0.00 0.00 89 1015.3
20260505151001 53 220 0.0 2.0 0.00 0.00 0.00 90 1015.3
20260505150505 53 220 0.0 2.0 0.00 0.00 0.00 90 1015.2
20260505140510 52 217 0.0 2.0 0.00 0.00 0.00 93 1014.7
20260505125007 50 311 0.0 0.0 0.00 0.00 0.00 95 1013.9
20260505124513 50 311 0.0 0.0 0.00 0.00 0.00 95 1013.8
20260505124006 50 311 0.0 0.0 0.00 0.00 0.00 95 1013.8
20260505123511 50 311 0.0 0.0 0.00 0.00 0.00 95 1013.8
20260505123035 49 311 0.0 0.0 0.00 0.00 0.00 95 1013.8
20260505122508 49 311 0.0 1.0 0.00 0.00 0.00 95 1013.8
20260505122008 49 311 0.0 2.0 0.00 0.00 0.00 94 1013.8
20260505121522 49 311 0.0 2.0 0.00 0.00 0.00 94 1013.8
20260505121010 49 311 0.0 2.0 0.00 0.00 0.00 94 1013.8
20260505120508 50 311 0.0 2.0 0.00 0.00 0.00 94 1013.7
20260505120027 50 311 0.0 2.0 0.00 0.00 0.00 94 1013.7
20260505115510 50 311 0.0 2.0 0.00 0.00 0.00 94 1013.7
20260505115006 50 311 0.0 2.0 0.00 0.00 0.00 94 1013.6
20260505114520 50 311 0.0 2.0 0.00 0.00 0.00 94 1013.6
20260505114013 50 311 0.0 0.0 0.00 0.00 0.00 93 1013.5
20260505113512 50 311 0.0 1.0 0.00 0.00 0.00 94 1013.4
20260505113018 50 311 0.0 2.0 0.00 0.00 0.00 94 1013.4
20260505112509 50 311 0.0 2.0 0.00 0.00 0.00 94 1013.3
20260505112013 50 311 0.0 2.0 0.00 0.00 0.00 94 1013.2
20260505111545 50 192 0.0 2.0 0.00 0.00 0.00 94 1013.2
20260505111007 50 281 0.0 2.0 0.00 0.00 0.00 93 1013.2
20260505110508 50 281 0.0 2.0 0.00 0.00 0.00 93 1013.2
20260505102009 51 304 0.0 2.0 0.00 0.00 0.00 92 1013.0
20260505101528 51 208 0.0 2.0 0.00 0.00 0.00 92 1013.0
20260505101007 51 274 0.0 2.0 0.00 0.00 0.00 92 1013.0
20260505100507 51 268 0.0 2.0 0.00 0.00 0.00 92 1013.0
20260505100021 51 283 0.0 2.0 0.00 0.00 0.00 92 1013.0
20260505095501 51 302 0.0 2.0 0.00 0.00 0.00 91 1012.9
20260505095003 51 301 0.0 2.0 0.00 0.00 0.00 91 1012.9
20260505094516 51 273 0.0 2.0 0.00 0.00 0.00 91 1012.8
20260505094008 51 350 0.0 2.0 0.00 0.00 0.00 91 1012.8
20260505093507 51 254 0.0 2.0 0.00 0.00 0.00 91 1012.7
20260505093012 52 247 0.0 2.0 0.00 0.00 0.00 91 1012.7
20260505092510 52 273 0.0 2.0 0.00 0.00 0.00 91 1012.7
20260505092002 52 243 0.0 2.0 0.00 0.00 0.00 91 1012.7
20260505091506 52 187 0.0 2.0 0.00 0.00 0.00 91 1012.7
20260505091004 52 211 0.0 2.0 0.00 0.00 0.00 91 1012.7
20260505090511 52 251 0.0 2.0 0.00 0.00 0.00 91 1012.7
20260505090004 52 257 0.0 2.0 0.00 0.00 0.00 91 1012.6
20260505085504 52 195 1.0 2.0 0.00 0.00 0.00 91 1012.6
20260505085012 52 294 0.0 2.0 0.00 0.00 0.00 90 1012.5
20260505084510 52 331 0.0 2.0 0.00 0.00 0.00 90 1012.6
20260505084003 52 331 0.0 2.0 0.00 0.00 0.00 90 1012.6
20260505083504 52 331 1.0 2.0 0.00 0.00 0.00 90 1012.6
20260505083022 52 243 0.0 2.0 0.00 0.00 0.00 90 1012.5
20260505082504 52 337 0.0 2.0 0.00 0.00 0.00 90 1012.5
20260505082004 52 279 0.0 2.0 0.00 0.00 0.00 90 1012.5
20260505081523 52 285 0.0 2.0 0.00 0.00 0.00 89 1012.5
20260505081014 52 248 0.0 2.0 0.00 0.00 0.00 89 1012.5
20260505080508 52 195 0.0 2.0 0.00 0.00 0.00 89 1012.4